,,Stat6,,Stat2,,Stat8,,Stat9,,Stat10,,Wind1,,Wind1,
time,status,PA1M_AVG,status,PR1M_SUM,status,RH1M_AVG,status,SR1M_AVG,status,TA1M_AVG,status,W1dAve1m,status,W1sAve1m,
2009-04-13, 00:00:00,VALID,916.338,VALID,0,VALID,99.8896,VALID,0,VALID,19.5176,VALID,144,VALID,1.06752,
2009-04-13, 00:01:00,VALID,916.331,VALID,0,VALID,99.6251,VALID,-0.0169808,VALID,19.5633,VALID,151,VALID,0.977121,
2009-04-13, 00:02:00,VALID,916.32,VALID,0,VALID,99.4255,VALID,0,VALID,19.5827,VALID,146,VALID,0.832961,
2009-04-13, 00:03:00,VALID,916.297,VALID,0,VALID,99.3009,VALID,0,VALID,19.5892,VALID,137,VALID,0.687318,
2009-04-13, 00:04:00,VALID,916.278,VALID,0,VALID,99.1979,VALID,0,VALID,19.5793,VALID,143,VALID,1.04616,
2009-04-13, 00:05:00,VALID,916.281,VALID,0,VALID,99.0936,VALID,0,VALID,19.602,VALID,138,VALID,1.5444,
2009-04-13, 00:06:00,VALID,916.281,VALID,0,VALID,98.9054,VALID,-0.0169808,VALID,19.6342,VALID,139,VALID,1.15072,
2009-04-13, 00:07:00,VALID,916.284,VALID,0,VALID,98.6396,VALID,0.0169808,VALID,19.6831,VALID,152,VALID,1.13953,
2009-04-13, 00:08:00,VALID,916.286,VALID,0,VALID,98.4603,VALID,-0.0169808,VALID,19.7125,VALID,144,VALID,0.883203,
2009-04-13, 00:09:00,VALID,916.268,VALID,0,VALID,98.2734,VALID,-0.0169808,VALID,19.7357,VALID,143,VALID,0.891387,
2009-04-13, 00:10:00,VALID,916.27,VALID,0,VALID,98.1208,VALID,-0.0169808,VALID,19.7515,VALID,157,VALID,1.08352,
2009-04-13, 00:11:00,VALID,916.25,VALID,0,VALID,97.9453,VALID,0,VALID,19.7712,VALID,139,VALID,0.89668,
2009-04-13, 00:12:00,VALID,916.229,VALID,0,VALID,97.7177,VALID,-0.0169808,VALID,19.7969,VALID,159,VALID,0.632068,
2009-04-13, 00:13:00,VALID,916.214,VALID,0,VALID,97.5702,VALID,-0.0169808,VALID,19.8159,VALID,164,VALID,0.711483,
2009-04-13, 00:14:00,VALID,916.201,VALID,0,VALID,97.4914,VALID,-0.0509425,VALID,19.8293,VALID,186,VALID,0.578316,
2009-04-13, 00:15:00,VALID,916.202,VALID,0,VALID,97.485,VALID,-0.0339617,VALID,19.8169,VALID,173,VALID,0.311384,
2009-04-13, 00:16:00,VALID,916.203,VALID,0,VALID,97.5702,VALID,-0.0169808,VALID,19.7939,VALID,135,VALID,0.160442,
2009-04-13, 00:17:00,VALID,916.216,VALID,0,VALID,97.6541,VALID,-0.0339617,VALID,19.7644,VALID,148,VALID,0.140625,
2009-04-13, 00:18:00,VALID,916.229,VALID,0,VALID,97.6898,VALID,-0.0169808,VALID,19.7355,VALID,157,VALID,0.418899,
2009-04-13, 00:19:00,VALID,916.216,VALID,0,VALID,97.7877,VALID,-0.0169808,VALID,19.7193,VALID,176,VALID,0.00520833,
2009-04-13, 00:20:00,VALID,916.206,VALID,0,VALID,97.8932,VALID,-0.0339617,VALID,19.7028,VALID,180,VALID,0,
2009-04-13, 00:21:00,VALID,916.187,VALID,0,VALID,98.1157,VALID,-0.0339617,VALID,19.6801,VALID,181,VALID,0,
2009-04-13, 00:22:00,VALID,916.171,VALID,0,VALID,98.4858,VALID,-0.0339617,VALID,19.6639,VALID,181,VALID,0,
2009-04-13, 00:23:00,VALID,916.16,VALID,0,VALID,98.7121,VALID,-0.0339617,VALID,19.6184,VALID,181,VALID,0,
2009-04-13, 00:24:00,VALID,916.148,VALID,0,VALID,98.9753,VALID,-0.0169808,VALID,19.5635,VALID,180,VALID,0,
2009-04-13, 00:25:00,VALID,916.13,VALID,0,VALID,99.1305,VALID,-0.0679233,VALID,19.4917,VALID,86,VALID,0,
2009-04-13, 00:26:00,VALID,916.121,VALID,0,VALID,99.2157,VALID,-0.0169808,VALID,19.4205,VALID,79,VALID,0,
2009-04-13, 00:27:00,VALID,916.096,VALID,0,VALID,99.4446,VALID,-0.0509425,VALID,19.3689,VALID,63,VALID,0,
2009-04-13, 00:28:00,VALID,916.074,VALID,0,VALID,99.6798,VALID,0,VALID,19.3402,VALID,62,VALID,0.429506,
2009-04-13, 00:29:00,VALID,916.069,VALID,0,VALID,99.8121,VALID,-0.0509425,VALID,19.3077,VALID,79,VALID,0.611328,
2009-04-13, 00:30:00,VALID,916.061,VALID,0,VALID,99.8782,VALID,-0.0339617,VALID,19.3105,VALID,128,VALID,0,
2009-04-13, 00:31:00,VALID,916.049,VALID,0,VALID,99.8349,VALID,-0.0509425,VALID,19.3397,VALID,121,VALID,0,
2009-04-13, 00:32:00,VALID,916.03,VALID,0,VALID,99.737,VALID,-0.0169808,VALID,19.3651,VALID,118,VALID,0.513263,
2009-04-13, 00:33:00,VALID,916.016,VALID,0,VALID,99.6798,VALID,0,VALID,19.3681,VALID,123,VALID,0.418968,
2009-04-13, 00:34:00,VALID,915.989,VALID,0,VALID,99.662,VALID,-0.0169808,VALID,19.3816,VALID,121,VALID,0.187099,
2009-04-13, 00:35:00,VALID,915.98,VALID,0,VALID,99.6785,VALID,0,VALID,19.3816,VALID,130,VALID,0.596768,
2009-04-13, 00:36:00,VALID,915.963,VALID,0,VALID,99.6684,VALID,-0.0339617,VALID,19.3846,VALID,123,VALID,0.6163,
2009-04-13, 00:37:00,VALID,915.963,VALID,0,VALID,99.5972,VALID,-0.0509425,VALID,19.4043,VALID,114,VALID,0.883832,
2009-04-13, 00:38:00,VALID,915.95,VALID,0,VALID,99.5577,VALID,-0.0509425,VALID,19.3911,VALID,97,VALID,0.662847,
2009-04-13, 00:39:00,VALID,915.932,VALID,0,VALID,99.5832,VALID,-0.0509425,VALID,19.3651,VALID,85,VALID,0.636265,
2009-04-13, 00:40:00,VALID,915.92,VALID,0,VALID,99.6442,VALID,0,VALID,19.3522,VALID,106,VALID,1.03142,
2009-04-13, 00:41:00,VALID,915.901,VALID,0,VALID,99.6785,VALID,-0.0169808,VALID,19.3684,VALID,115,VALID,0.998476,
2009-04-13, 00:42:00,VALID,915.871,VALID,0,VALID,99.6391,VALID,-0.0509425,VALID,19.3781,VALID,109,VALID,0.8125,
2009-04-13, 00:43:00,VALID,915.848,VALID,0,VALID,99.573,VALID,0,VALID,19.3843,VALID,126,VALID,0.927782,
2009-04-13, 00:44:00,VALID,915.817,VALID,0,VALID,99.5921,VALID,-0.0339617,VALID,19.3719,VALID,120,VALID,0.351372,
2009-04-13, 00:45:00,VALID,915.815,VALID,0,VALID,99.6493,VALID,-0.0169808,VALID,19.3589,VALID,126,VALID,0.671875,
2009-04-13, 00:46:00,VALID,915.803,VALID,0,VALID,99.7167,VALID,-0.0509425,VALID,19.3556,VALID,122,VALID,1.14916,
2009-04-13, 00:47:00,VALID,915.79,VALID,0,VALID,99.6951,VALID,-0.0339617,VALID,19.3689,VALID,121,VALID,0.434642,
2009-04-13, 00:48:00,VALID,915.789,VALID,0,VALID,99.6862,VALID,-0.0509425,VALID,19.3554,VALID,113,VALID,0.375586,
2009-04-13, 00:49:00,VALID,915.783,VALID,0,VALID,99.6951,VALID,0,VALID,19.3651,VALID,105,VALID,0.604367,
2009-04-13, 00:50:00,VALID,915.779,VALID,0,VALID,99.648,VALID,0,VALID,19.3786,VALID,108,VALID,0.00590701,
2009-04-13, 00:51:00,VALID,915.768,VALID,0,VALID,99.5603,VALID,-0.0339617,VALID,19.3881,VALID,102,VALID,0.379192,
2009-04-13, 00:52:00,VALID,915.756,VALID,0,VALID,99.4954,VALID,-0.118866,VALID,19.4153,VALID,91,VALID,0.164253,
2009-04-13, 00:53:00,VALID,915.737,VALID,0,VALID,99.4382,VALID,-0.135847,VALID,19.402,VALID,99,VALID,0.171684,
2009-04-13, 00:54:00,VALID,915.704,VALID,0,VALID,99.4827,VALID,-0.101885,VALID,19.4058,VALID,103,VALID,0.139382,
2009-04-13, 00:55:00,VALID,915.69,VALID,0,VALID,99.5285,VALID,-0.135847,VALID,19.3863,VALID,96,VALID,0.0012718,
2009-04-13, 00:56:00,VALID,915.677,VALID,0,VALID,99.6264,VALID,-0.135847,VALID,19.3698,VALID,97,VALID,0.0739462,
2009-04-13, 00:57:00,VALID,915.654,VALID,0,VALID,99.7218,VALID,-0.135847,VALID,19.3506,VALID,106,VALID,0,
2009-04-13, 00:58:00,VALID,915.637,VALID,0,VALID,99.8184,VALID,-0.101885,VALID,19.3374,VALID,119,VALID,0.134301,
2009-04-13, 00:59:00,VALID,915.619,VALID,0,VALID,99.8896,VALID,-0.118866,VALID,19.3312,VALID,96,VALID,0.0886009,
2009-04-13, 01:00:00,VALID,915.619,VALID,0,VALID,99.9316,VALID,-0.118866,VALID,19.3149,VALID,100,VALID,0,
2009-04-13, 01:01:00,VALID,915.595,VALID,0,VALID,99.9822,VALID,-0.118866,VALID,19.2985,VALID,89,VALID,0,
2009-04-13, 01:02:00,VALID,915.572,VALID,0,VALID,99.999,VALID,-0.169808,VALID,19.2822,VALID,86,VALID,0,
2009-04-13, 01:03:00,VALID,915.554,VALID,0,VALID,100,VALID,-0.118866,VALID,19.2725,VALID,84,VALID,0,
2009-04-13, 01:04:00,VALID,915.536,VALID,0,VALID,100,VALID,-0.101885,VALID,19.2368,VALID,78,VALID,0,
2009-04-13, 01:05:00,VALID,915.517,VALID,0,VALID,100,VALID,-0.169808,VALID,19.2141,VALID,72,VALID,0,
2009-04-13, 01:06:00,VALID,915.488,VALID,0,VALID,100,VALID,-0.101885,VALID,19.2014,VALID,77,VALID,0.663707,
2009-04-13, 01:07:00,VALID,915.47,VALID,0,VALID,100,VALID,-0.0679233,VALID,19.1869,VALID,95,VALID,0,
2009-04-13, 01:08:00,VALID,915.456,VALID,0,VALID,100,VALID,-0.0509425,VALID,19.1707,VALID,92,VALID,0,
2009-04-13, 01:09:00,VALID,915.434,VALID,0,VALID,100,VALID,-0.0169808,VALID,19.1513,VALID,106,VALID,0,
2009-04-13, 01:10:00,VALID,915.441,VALID,0,VALID,100,VALID,-0.0679233,VALID,19.1183,VALID,103,VALID,0,
2009-04-13, 01:11:00,VALID,915.417,VALID,0,VALID,100,VALID,-0.0339617,VALID,19.1218,VALID,89,VALID,0,
2009-04-13, 01:12:00,VALID,915.41,VALID,0,VALID,100,VALID,-0.0169808,VALID,19.1183,VALID,104,VALID,0.344271,
2009-04-13, 01:13:00,VALID,915.389,VALID,0,VALID,100,VALID,-0.0679233,VALID,19.1348,VALID,119,VALID,0.0788194,
2009-04-13, 01:14:00,VALID,915.383,VALID,0,VALID,100,VALID,-0.0169808,VALID,19.18,VALID,119,VALID,0.114025,
2009-04-13, 01:15:00,VALID,915.374,VALID,0,VALID,100,VALID,-0.0339617,VALID,19.2224,VALID,117,VALID,0,
2009-04-13, 01:16:00,VALID,915.346,VALID,0,VALID,100,VALID,-0.0679233,VALID,19.2646,VALID,113,VALID,0.590402,
2009-04-13, 01:17:00,VALID,915.327,VALID,0,VALID,99.9563,VALID,-0.0339617,VALID,19.3067,VALID,125,VALID,0.331836,
2009-04-13, 01:18:00,VALID,915.313,VALID,0,VALID,99.7065,VALID,-0.0169808,VALID,19.3654,VALID,120,VALID,0.291667,
2009-04-13, 01:19:00,VALID,915.277,VALID,0,VALID,99.4827,VALID,-0.0679233,VALID,19.3814,VALID,118,VALID,0.449405,
2009-04-13, 01:20:00,VALID,915.253,VALID,0,VALID,99.3314,VALID,0,VALID,19.3878,VALID,128,VALID,0.392154,
2009-04-13, 01:21:00,VALID,915.219,VALID,0,VALID,99.2157,VALID,-0.0679233,VALID,19.3978,VALID,124,VALID,1.05859,
2009-04-13, 01:22:00,VALID,915.2,VALID,0,VALID,99.1356,VALID,-0.0169808,VALID,19.4011,VALID,129,VALID,0.507813,
2009-04-13, 01:23:00,VALID,915.178,VALID,0,VALID,99.1254,VALID,-0.0509425,VALID,19.3911,VALID,121,VALID,0.282203,
2009-04-13, 01:24:00,VALID,915.15,VALID,0,VALID,99.1368,VALID,-0.0509425,VALID,19.3781,VALID,128,VALID,0.321837,
2009-04-13, 01:25:00,VALID,915.147,VALID,0,VALID,99.1394,VALID,-0.0679233,VALID,19.3719,VALID,127,VALID,1.5625,
2009-04-13, 01:26:00,VALID,915.126,VALID,0,VALID,99.0771,VALID,-0.0509425,VALID,19.3911,VALID,134,VALID,0.632626,
2009-04-13, 01:27:00,VALID,915.108,VALID,0,VALID,98.9817,VALID,-0.0169808,VALID,19.4043,VALID,137,VALID,0.609561,
2009-04-13, 01:28:00,VALID,915.083,VALID,0,VALID,98.8698,VALID,0,VALID,19.4268,VALID,134,VALID,0.80293,
2009-04-13, 01:29:00,VALID,915.072,VALID,0,VALID,98.7147,VALID,-0.0509425,VALID,19.4397,VALID,127,VALID,0.845796,
2009-04-13, 01:30:00,VALID,915.06,VALID,0,VALID,98.5468,VALID,-0.0169808,VALID,19.462,VALID,147,VALID,1.02834,
2009-04-13, 01:31:00,VALID,915.046,VALID,0,VALID,98.4108,VALID,-0.0679233,VALID,19.4787,VALID,152,VALID,0.77798,
2009-04-13, 01:32:00,VALID,915.05,VALID,0,VALID,98.3141,VALID,-0.0509425,VALID,19.4919,VALID,124,VALID,0.258984,
2009-04-13, 01:33:00,VALID,915.04,VALID,0,VALID,98.1831,VALID,-0.0339617,VALID,19.5079,VALID,145,VALID,0.510769,
2009-04-13, 01:34:00,VALID,915.03,VALID,0,VALID,98.0331,VALID,-0.0169808,VALID,19.5273,VALID,150,VALID,0.589143,
2009-04-13, 01:35:00,VALID,915.009,VALID,0,VALID,97.8207,VALID,-0.0509425,VALID,19.5401,VALID,148,VALID,0.526563,
2009-04-13, 01:36:00,VALID,915.013,VALID,0,VALID,97.6402,VALID,-0.0339617,VALID,19.5763,VALID,134,VALID,1.06362,
2009-04-13, 01:37:00,VALID,915.009,VALID,0,VALID,97.4545,VALID,-0.0679233,VALID,19.5892,VALID,138,VALID,1.28392,
2009-04-13, 01:38:00,VALID,914.999,VALID,0,VALID,97.2053,VALID,-0.0509425,VALID,19.6249,VALID,127,VALID,1.22275,
2009-04-13, 01:39:00,VALID,914.994,VALID,0,VALID,96.8645,VALID,-0.101885,VALID,19.6639,VALID,137,VALID,1.97002,
2009-04-13, 01:40:00,VALID,915,VALID,0,VALID,96.5911,VALID,-0.0339617,VALID,19.706,VALID,137,VALID,0.991211,
2009-04-13, 01:41:00,VALID,914.987,VALID,0,VALID,96.3393,VALID,-0.0679233,VALID,19.732,VALID,132,VALID,1.07217,
2009-04-13, 01:42:00,VALID,914.977,VALID,0,VALID,96.1638,VALID,-0.0679233,VALID,19.7547,VALID,136,VALID,1.53404,
2009-04-13, 01:43:00,VALID,914.952,VALID,0,VALID,96.0278,VALID,-0.0679233,VALID,19.7674,VALID,135,VALID,1.71738,
2009-04-13, 01:44:00,VALID,914.93,VALID,0,VALID,95.7811,VALID,-0.0339617,VALID,19.7869,VALID,125,VALID,1.81055,
2009-04-13, 01:45:00,VALID,914.911,VALID,0,VALID,95.5547,VALID,-0.0509425,VALID,19.8061,VALID,135,VALID,1.34975,
2009-04-13, 01:46:00,VALID,914.893,VALID,0,VALID,95.2521,VALID,-0.0169808,VALID,19.8648,VALID,135,VALID,2.27222,
2009-04-13, 01:47:00,VALID,914.889,VALID,0,VALID,95.0245,VALID,-0.0339617,VALID,19.894,VALID,138,VALID,1.99873,
2009-04-13, 01:48:00,VALID,914.877,VALID,0,VALID,94.9812,VALID,-0.0339617,VALID,19.904,VALID,137,VALID,1.40132,
2009-04-13, 01:49:00,VALID,914.89,VALID,0,VALID,95.0194,VALID,-0.0509425,VALID,19.8845,VALID,130,VALID,1.33434,
2009-04-13, 01:50:00,VALID,914.883,VALID,0,VALID,95.0308,VALID,-0.0679233,VALID,19.8683,VALID,139,VALID,1.5169,
2009-04-13, 01:51:00,VALID,914.873,VALID,0,VALID,95.0715,VALID,-0.0679233,VALID,19.888,VALID,137,VALID,0.55564,
2009-04-13, 01:52:00,VALID,914.878,VALID,0,VALID,95.0741,VALID,-0.0679233,VALID,19.8685,VALID,164,VALID,0.984189,
2009-04-13, 01:53:00,VALID,914.856,VALID,0,VALID,95.1135,VALID,-0.0679233,VALID,19.862,VALID,142,VALID,0.930414,
2009-04-13, 01:54:00,VALID,914.852,VALID,0,VALID,95.172,VALID,-0.0509425,VALID,19.8488,VALID,111,VALID,0.360647,
2009-04-13, 01:55:00,VALID,914.843,VALID,0,VALID,95.2521,VALID,-0.0849042,VALID,19.8263,VALID,140,VALID,0.352307,
2009-04-13, 01:56:00,VALID,914.824,VALID,0,VALID,95.3767,VALID,-0.0679233,VALID,19.8234,VALID,169,VALID,0.229514,
2009-04-13, 01:57:00,VALID,914.804,VALID,0,VALID,95.4822,VALID,-0.0339617,VALID,19.7872,VALID,137,VALID,0.316311,
2009-04-13, 01:58:00,VALID,914.78,VALID,0,VALID,95.6043,VALID,-0.0679233,VALID,19.7714,VALID,143,VALID,0.0470567,
2009-04-13, 01:59:00,VALID,914.764,VALID,0,VALID,95.7289,VALID,-0.0849042,VALID,19.7422,VALID,132,VALID,0.736506,
2009-04-13, 02:00:00,VALID,914.745,VALID,0,VALID,95.8001,VALID,-0.0339617,VALID,19.7255,VALID,128,VALID,0.626172,
2009-04-13, 02:01:00,VALID,914.725,VALID,0,VALID,95.8116,VALID,-0.0849042,VALID,19.7223,VALID,128,VALID,0.457508,
2009-04-13, 02:02:00,VALID,914.71,VALID,0,VALID,95.8548,VALID,-0.0509425,VALID,19.716,VALID,121,VALID,0.0857558,
2009-04-13, 02:03:00,VALID,914.678,VALID,0,VALID,95.8955,VALID,-0.0679233,VALID,19.7065,VALID,130,VALID,0.852325,
2009-04-13, 02:04:00,VALID,914.652,VALID,0,VALID,95.8205,VALID,-0.0339617,VALID,19.7058,VALID,139,VALID,0.670508,
2009-04-13, 02:05:00,VALID,914.644,VALID,0,VALID,95.7175,VALID,-0.0679233,VALID,19.7452,VALID,130,VALID,0.0768821,
2009-04-13, 02:06:00,VALID,914.609,VALID,0,VALID,95.6132,VALID,-0.0679233,VALID,19.7552,VALID,130,VALID,0.645275,
2009-04-13, 02:07:00,VALID,914.585,VALID,0,VALID,95.4937,VALID,0.0339617,VALID,19.7694,VALID,135,VALID,0.403088,
2009-04-13, 02:08:00,VALID,914.578,VALID,0,VALID,95.3945,VALID,0.0509425,VALID,19.7859,VALID,137,VALID,0.145952,
2009-04-13, 02:09:00,VALID,914.555,VALID,0,VALID,95.3271,VALID,0.0339617,VALID,19.7862,VALID,137,VALID,0.688643,
2009-04-13, 02:10:00,VALID,914.544,VALID,0,VALID,95.1389,VALID,0.0679233,VALID,19.8184,VALID,142,VALID,0.499645,
2009-04-13, 02:11:00,VALID,914.538,VALID,0,VALID,94.9418,VALID,0,VALID,19.8438,VALID,136,VALID,0.378534,
2009-04-13, 02:12:00,VALID,914.53,VALID,0,VALID,94.8426,VALID,0.0339617,VALID,19.867,VALID,148,VALID,0.0684524,
2009-04-13, 02:13:00,VALID,914.528,VALID,0,VALID,94.8032,VALID,0.0339617,VALID,19.8605,VALID,132,VALID,0.0648619,
2009-04-13, 02:14:00,VALID,914.542,VALID,0,VALID,94.8261,VALID,0.0169808,VALID,19.8516,VALID,146,VALID,0.121094,
2009-04-13, 02:15:00,VALID,914.547,VALID,0,VALID,94.8719,VALID,0.0339617,VALID,19.8318,VALID,138,VALID,0.133152,
2009-04-13, 02:16:00,VALID,914.551,VALID,0,VALID,94.8579,VALID,0,VALID,19.8283,VALID,131,VALID,0.244606,
2009-04-13, 02:17:00,VALID,914.553,VALID,0,VALID,94.8197,VALID,0.0339617,VALID,19.8575,VALID,148,VALID,0,
2009-04-13, 02:18:00,VALID,914.546,VALID,0,VALID,94.8642,VALID,0.0169808,VALID,19.8386,VALID,135,VALID,0.0661892,
2009-04-13, 02:19:00,VALID,914.556,VALID,0,VALID,94.9965,VALID,0.0169808,VALID,19.8056,VALID,127,VALID,0,
2009-04-13, 02:20:00,VALID,914.548,VALID,0,VALID,95.1224,VALID,0.0509425,VALID,19.7797,VALID,158,VALID,0,
2009-04-13, 02:21:00,VALID,914.539,VALID,0,VALID,95.2648,VALID,0,VALID,19.7669,VALID,116,VALID,0.514205,
2009-04-13, 02:22:00,VALID,914.546,VALID,0,VALID,95.3513,VALID,-0.0679233,VALID,19.7552,VALID,91,VALID,0.363982,
2009-04-13, 02:23:00,VALID,914.538,VALID,0,VALID,95.4238,VALID,-0.0679233,VALID,19.7457,VALID,102,VALID,0,
2009-04-13, 02:24:00,VALID,914.531,VALID,0,VALID,95.4746,VALID,-0.0849042,VALID,19.73,VALID,109,VALID,0,
2009-04-13, 02:25:00,VALID,914.527,VALID,0,VALID,95.6094,VALID,-0.118866,VALID,19.7035,VALID,117,VALID,0,
2009-04-13, 02:26:00,VALID,914.523,VALID,0,VALID,95.7518,VALID,-0.0679233,VALID,19.6708,VALID,117,VALID,0,
2009-04-13, 02:27:00,VALID,914.519,VALID,0,VALID,95.9718,VALID,-0.101885,VALID,19.6349,VALID,117,VALID,0,
2009-04-13, 02:28:00,VALID,914.507,VALID,0,VALID,96.3101,VALID,-0.0679233,VALID,19.596,VALID,117,VALID,0,
2009-04-13, 02:29:00,VALID,914.513,VALID,0,VALID,96.6572,VALID,-0.101885,VALID,19.5545,VALID,118,VALID,0,
2009-04-13, 02:30:00,VALID,914.511,VALID,0,VALID,96.9433,VALID,-0.0849042,VALID,19.5154,VALID,118,VALID,0,
2009-04-13, 02:31:00,VALID,914.515,VALID,0,VALID,97.1633,VALID,-0.0509425,VALID,19.4562,VALID,118,VALID,0,
2009-04-13, 02:32:00,VALID,914.507,VALID,0,VALID,97.3223,VALID,-0.0509425,VALID,19.4375,VALID,118,VALID,0,
2009-04-13, 02:33:00,VALID,914.494,VALID,0,VALID,97.4558,VALID,-0.0849042,VALID,19.3951,VALID,137,VALID,0,
2009-04-13, 02:34:00,VALID,914.49,VALID,0,VALID,97.5613,VALID,-0.118866,VALID,19.3786,VALID,174,VALID,0.0935683,
2009-04-13, 02:35:00,VALID,914.497,VALID,0,VALID,97.616,VALID,-0.0849042,VALID,19.3724,VALID,180,VALID,0,
2009-04-13, 02:36:00,VALID,914.474,VALID,0,VALID,97.7025,VALID,-0.0849042,VALID,19.3554,VALID,195,VALID,0,
2009-04-13, 02:37:00,VALID,914.467,VALID,0,VALID,97.747,VALID,-0.0339617,VALID,19.3591,VALID,192,VALID,0,
2009-04-13, 02:38:00,VALID,914.465,VALID,0,VALID,97.8334,VALID,-0.0509425,VALID,19.3496,VALID,174,VALID,0,
2009-04-13, 02:39:00,VALID,914.456,VALID,0,VALID,97.9288,VALID,-0.101885,VALID,19.3299,VALID,174,VALID,0,
2009-04-13, 02:40:00,VALID,914.462,VALID,0,VALID,97.9937,VALID,-0.0509425,VALID,19.3174,VALID,172,VALID,0,
2009-04-13, 02:41:00,VALID,914.449,VALID,0,VALID,98.1043,VALID,-0.0679233,VALID,19.301,VALID,167,VALID,0,
2009-04-13, 02:42:00,VALID,914.437,VALID,0,VALID,98.1615,VALID,-0.101885,VALID,19.2908,VALID,173,VALID,0,
2009-04-13, 02:43:00,VALID,914.435,VALID,0,VALID,98.1628,VALID,-0.118866,VALID,19.3274,VALID,162,VALID,0,
2009-04-13, 02:44:00,VALID,914.445,VALID,0,VALID,98.1068,VALID,-0.0849042,VALID,19.3369,VALID,164,VALID,0,
2009-04-13, 02:45:00,VALID,914.423,VALID,0,VALID,98.0458,VALID,-0.0679233,VALID,19.3494,VALID,168,VALID,0,
2009-04-13, 02:46:00,VALID,914.423,VALID,0,VALID,98.0496,VALID,-0.0679233,VALID,19.3526,VALID,173,VALID,0,
2009-04-13, 02:47:00,VALID,914.427,VALID,0,VALID,98.0433,VALID,-0.101885,VALID,19.3631,VALID,173,VALID,0,
2009-04-13, 02:48:00,VALID,914.426,VALID,0,VALID,98.0483,VALID,-0.0679233,VALID,19.3267,VALID,173,VALID,0,
2009-04-13, 02:49:00,VALID,914.417,VALID,0,VALID,98.1933,VALID,-0.0679233,VALID,19.3239,VALID,173,VALID,0,
2009-04-13, 02:50:00,VALID,914.413,VALID,0,VALID,98.2429,VALID,-0.0509425,VALID,19.304,VALID,173,VALID,0,
2009-04-13, 02:51:00,VALID,914.416,VALID,0,VALID,98.337,VALID,-0.0679233,VALID,19.2882,VALID,173,VALID,0,
2009-04-13, 02:52:00,VALID,914.412,VALID,0,VALID,98.4349,VALID,0.0169808,VALID,19.2219,VALID,173,VALID,0,
2009-04-13, 02:53:00,VALID,914.423,VALID,0,VALID,98.5773,VALID,0,VALID,19.1735,VALID,173,VALID,0,
2009-04-13, 02:54:00,VALID,914.412,VALID,0,VALID,98.7604,VALID,0.0169808,VALID,19.147,VALID,173,VALID,0,
2009-04-13, 02:55:00,VALID,914.396,VALID,0,VALID,98.9588,VALID,0.0169808,VALID,19.1313,VALID,173,VALID,0,
2009-04-13, 02:56:00,VALID,914.4,VALID,0,VALID,99.2271,VALID,0.0169808,VALID,19.0727,VALID,173,VALID,0,
2009-04-13, 02:57:00,VALID,914.4,VALID,0,VALID,99.4942,VALID,0,VALID,19.011,VALID,64,VALID,0,
2009-04-13, 02:58:00,VALID,914.399,VALID,0,VALID,99.7536,VALID,0,VALID,18.9494,VALID,62,VALID,0,
2009-04-13, 02:59:00,VALID,914.417,VALID,0,VALID,99.9926,VALID,0.0339617,VALID,18.8943,VALID,62,VALID,0,
2009-04-13, 03:00:00,VALID,914.424,VALID,0,VALID,100,VALID,0.0169808,VALID,18.8651,VALID,62,VALID,0,
2009-04-13, 03:01:00,VALID,914.413,VALID,0,VALID,100,VALID,0.0169808,VALID,18.8354,VALID,62,VALID,0,
2009-04-13, 03:02:00,VALID,914.424,VALID,0,VALID,100,VALID,0.0169808,VALID,18.8354,VALID,62,VALID,0,
2009-04-13, 03:03:00,VALID,914.444,VALID,0,VALID,100,VALID,0,VALID,18.8287,VALID,62,VALID,0,
2009-04-13, 03:04:00,VALID,914.44,VALID,0,VALID,100,VALID,0,VALID,18.8486,VALID,62,VALID,0,
2009-04-13, 03:05:00,VALID,914.437,VALID,0,VALID,100,VALID,0.0339617,VALID,18.8549,VALID,62,VALID,0,
2009-04-13, 03:06:00,VALID,914.437,VALID,0,VALID,100,VALID,0,VALID,18.8646,VALID,62,VALID,0,
2009-04-13, 03:07:00,VALID,914.443,VALID,0,VALID,100,VALID,-0.0509425,VALID,18.872,VALID,63,VALID,0,
2009-04-13, 03:08:00,VALID,914.448,VALID,0,VALID,100,VALID,-0.0849042,VALID,18.8625,VALID,63,VALID,0,
2009-04-13, 03:09:00,VALID,914.455,VALID,0,VALID,100,VALID,-0.0679233,VALID,18.857,VALID,63,VALID,0,
2009-04-13, 03:10:00,VALID,914.449,VALID,0,VALID,100,VALID,-0.0679233,VALID,18.8072,VALID,63,VALID,0,
2009-04-13, 03:11:00,VALID,914.446,VALID,0,VALID,100,VALID,-0.0849042,VALID,18.7949,VALID,63,VALID,0,
2009-04-13, 03:12:00,VALID,914.456,VALID,0,VALID,100,VALID,-0.0679233,VALID,18.7912,VALID,63,VALID,0,
2009-04-13, 03:13:00,VALID,914.446,VALID,0,VALID,100,VALID,-0.0679233,VALID,18.7849,VALID,63,VALID,0,
2009-04-13, 03:14:00,VALID,914.445,VALID,0,VALID,100,VALID,-0.0509425,VALID,18.7879,VALID,72,VALID,0,
2009-04-13, 03:15:00,VALID,914.456,VALID,0,VALID,100,VALID,-0.0339617,VALID,18.7784,VALID,81,VALID,0,
2009-04-13, 03:16:00,VALID,914.447,VALID,0,VALID,100,VALID,-0.0509425,VALID,18.7782,VALID,95,VALID,0,
2009-04-13, 03:17:00,VALID,914.448,VALID,0,VALID,100,VALID,-0.0509425,VALID,18.7879,VALID,99,VALID,0,
2009-04-13, 03:18:00,VALID,914.443,VALID,0,VALID,100,VALID,-0.101885,VALID,18.8243,VALID,108,VALID,0,
2009-04-13, 03:19:00,VALID,914.431,VALID,0,VALID,100,VALID,-0.101885,VALID,18.8204,VALID,111,VALID,0,
2009-04-13, 03:20:00,VALID,914.428,VALID,0,VALID,100,VALID,-0.101885,VALID,18.8463,VALID,123,VALID,0,
2009-04-13, 03:21:00,VALID,914.428,VALID,0,VALID,100,VALID,-0.0679233,VALID,18.9209,VALID,123,VALID,0,
2009-04-13, 03:22:00,VALID,914.426,VALID,0,VALID,100,VALID,-0.0339617,VALID,19.0412,VALID,123,VALID,0,
2009-04-13, 03:23:00,VALID,914.441,VALID,0,VALID,100,VALID,-0.0849042,VALID,19.1483,VALID,123,VALID,0,
2009-04-13, 03:24:00,VALID,914.433,VALID,0,VALID,99.9311,VALID,-0.0679233,VALID,19.1939,VALID,122,VALID,0.0366443,
2009-04-13, 03:25:00,VALID,914.445,VALID,0,VALID,99.6633,VALID,-0.0509425,VALID,19.2062,VALID,126,VALID,0.53487,
2009-04-13, 03:26:00,VALID,914.435,VALID,0,VALID,99.4458,VALID,-0.0679233,VALID,19.2356,VALID,128,VALID,0.724609,
2009-04-13, 03:27:00,VALID,914.419,VALID,0,VALID,99.306,VALID,-0.0679233,VALID,19.2523,VALID,130,VALID,0.721912,
2009-04-13, 03:28:00,VALID,914.432,VALID,0,VALID,99.2411,VALID,-0.0679233,VALID,19.2483,VALID,129,VALID,0.529204,
2009-04-13, 03:29:00,VALID,914.425,VALID,0,VALID,99.2157,VALID,-0.0509425,VALID,19.2321,VALID,131,VALID,0.415334,
2009-04-13, 03:30:00,VALID,914.426,VALID,0,VALID,99.2754,VALID,-0.0679233,VALID,19.2164,VALID,134,VALID,0.499238,
2009-04-13, 03:31:00,VALID,914.428,VALID,0,VALID,99.3937,VALID,-0.0679233,VALID,19.1867,VALID,147,VALID,0.423399,
2009-04-13, 03:32:00,VALID,914.418,VALID,0,VALID,99.5616,VALID,-0.0849042,VALID,19.1612,VALID,140,VALID,0.349702,
2009-04-13, 03:33:00,VALID,914.42,VALID,0,VALID,99.7943,VALID,-0.0169808,VALID,19.1218,VALID,143,VALID,0.337271,
2009-04-13, 03:34:00,VALID,914.405,VALID,0,VALID,99.9878,VALID,-0.0169808,VALID,19.0634,VALID,144,VALID,0.27397,
2009-04-13, 03:35:00,VALID,914.399,VALID,0,VALID,100,VALID,-0.0509425,VALID,19.015,VALID,143,VALID,0.20348,
2009-04-13, 03:36:00,VALID,914.39,VALID,0,VALID,100,VALID,0,VALID,18.9726,VALID,151,VALID,0.296474,